TimeCST,TemperatureF,Dew PointF,Humidity,Sea Level PressureIn,VisibilityMPH,Wind Direction,Wind SpeedMPH,Gust SpeedMPH,PrecipitationIn,Events,Conditions,WindDirDegrees,DateUTC
12:54 AM,27.0,21.9,81,30.14,10.0,SE,6.9,-,N/A,,Mostly Cloudy,130,2012-12-09 06:54:00
1:54 AM,27.0,21.9,81,30.15,10.0,ENE,9.2,-,N/A,,Overcast,70,2012-12-09 07:54:00
2:54 AM,26.1,19.9,78,30.11,10.0,East,10.4,-,N/A,,Overcast,90,2012-12-09 08:54:00
3:54 AM,27.0,21.0,78,30.09,10.0,East,9.2,18.4,N/A,,Overcast,100,2012-12-09 09:54:00
4:54 AM,28.0,21.9,78,30.09,10.0,East,10.4,-,N/A,,Overcast,100,2012-12-09 10:54:00
5:15 AM,28.4,21.2,74,30.04,10.0,East,12.7,-,N/A,,Overcast,90,2012-12-09 11:15:00
5:54 AM,28.0,21.9,78,30.11,10.0,East,10.4,-,N/A,,Overcast,100,2012-12-09 11:54:00
6:35 AM,28.4,23.0,80,30.04,2.5,East,11.5,-,0.00,Snow,Light Snow,90,2012-12-09 12:35:00
6:42 AM,28.4,23.0,80,30.03,4.0,East,10.4,-,0.00,Snow,Light Snow,90,2012-12-09 12:42:00
6:54 AM,28.0,23.0,81,30.08,6.0,East,11.5,-,0.00,Snow,Light Snow,100,2012-12-09 12:54:00
7:54 AM,27.0,24.1,89,30.07,10.0,East,10.4,-,0.00,,Overcast,90,2012-12-09 13:54:00
8:54 AM,28.0,24.1,85,30.06,2.0,East,10.4,-,0.00,Snow,Light Snow,100,2012-12-09 14:54:00
9:02 AM,28.4,24.8,86,30.00,1.5,East,11.5,-,0.00,Snow,Light Snow,90,2012-12-09 15:02:00
9:23 AM,28.4,24.8,86,30.00,1.0,East,11.5,-,0.00,Snow,Light Snow,100,2012-12-09 15:23:00
9:43 AM,28.4,26.6,93,29.99,1.0,East,9.2,-,0.00,Snow,Light Snow,90,2012-12-09 15:43:00
9:54 AM,28.0,26.1,92,30.05,1.0,East,10.4,-,0.00,Snow,Light Snow,90,2012-12-09 15:54:00
10:16 AM,28.4,26.6,93,29.99,1.0,East,11.5,-,0.00,Snow,Light Snow,80,2012-12-09 16:16:00
10:29 AM,28.4,26.6,93,29.99,0.8,East,9.2,-,0.00,Snow,Light Snow,80,2012-12-09 16:29:00
10:40 AM,28.4,26.6,93,29.98,1.0,East,10.4,-,0.00,Snow,Light Snow,90,2012-12-09 16:40:00
10:54 AM,28.9,27.0,92,30.02,1.0,East,10.4,-,0.00,Snow,Light Snow,80,2012-12-09 16:54:00
11:20 AM,28.4,26.6,93,29.94,0.8,East,11.5,-,0.00,Snow,Light Snow,80,2012-12-09 17:20:00
11:32 AM,28.4,26.6,93,29.94,0.8,East,11.5,-,0.00,Snow,Light Snow,80,2012-12-09 17:32:00
11:54 AM,28.9,27.0,92,29.97,0.8,ENE,11.5,-,0.00,Snow,Light Snow,70,2012-12-09 17:54:00
12:03 PM,28.4,26.6,93,29.91,1.0,East,11.5,19.6,0.00,Snow,Light Snow,80,2012-12-09 18:03:00
12:43 PM,28.4,26.6,93,29.88,1.0,East,15.0,-,0.00,Snow,Light Snow,80,2012-12-09 18:43:00
12:54 PM,28.9,26.1,89,29.92,1.0,ENE,16.1,21.9,0.00,Snow,Light Snow,70,2012-12-09 18:54:00
1:06 PM,28.4,26.6,93,29.87,1.2,ENE,12.7,-,0.00,Snow,Light Snow,70,2012-12-09 19:06:00
1:20 PM,28.4,26.6,93,29.87,1.0,ENE,13.8,-,0.00,Snow,Light Snow,70,2012-12-09 19:20:00
1:31 PM,28.4,26.6,93,29.86,0.8,East,12.7,-,0.00,Snow,Light Snow,80,2012-12-09 19:31:00
1:44 PM,28.4,26.6,93,29.85,0.8,East,12.7,-,0.00,Snow,Light Snow,80,2012-12-09 19:44:00
1:52 PM,28.4,26.6,93,29.85,0.8,ENE,13.8,-,0.00,Snow,Light Snow,70,2012-12-09 19:52:00
1:54 PM,28.9,26.1,89,29.90,0.8,ENE,13.8,-,0.00,Snow,Light Snow,70,2012-12-09 19:54:00
2:02 PM,28.4,26.6,93,29.84,1.0,ENE,13.8,-,0.00,Snow,Light Snow,70,2012-12-09 20:02:00
2:11 PM,28.4,26.6,93,29.83,0.8,ENE,12.7,-,0.00,Snow,Light Snow,70,2012-12-09 20:11:00
2:32 PM,28.4,26.6,93,29.82,0.8,ENE,15.0,-,0.00,Snow,Light Snow,70,2012-12-09 20:32:00
2:49 PM,28.4,26.6,93,29.80,0.8,ENE,16.1,20.7,0.00,Snow,Light Snow,70,2012-12-09 20:49:00
2:54 PM,28.9,26.1,89,29.86,1.0,ENE,15.0,21.9,0.00,Snow,Light Snow,70,2012-12-09 20:54:00
3:10 PM,28.4,26.6,93,29.80,1.2,ENE,11.5,-,0.00,Snow,Light Snow,70,2012-12-09 21:10:00
3:18 PM,28.4,26.6,93,29.80,1.8,ENE,13.8,-,0.00,Snow,Light Snow,70,2012-12-09 21:18:00
3:31 PM,28.4,26.6,93,29.80,1.0,East,12.7,-,0.00,Snow,Light Snow,80,2012-12-09 21:31:00
3:39 PM,28.4,26.6,93,29.79,0.8,East,15.0,-,0.00,Snow,Light Snow,80,2012-12-09 21:39:00
3:54 PM,28.9,26.1,89,29.84,0.8,ENE,11.5,-,0.00,Snow,Light Snow,70,2012-12-09 21:54:00
4:30 PM,28.4,26.6,93,29.79,1.0,ENE,10.4,-,0.00,Snow,Light Snow,70,2012-12-09 22:30:00
4:54 PM,28.9,27.0,92,29.85,1.0,ENE,9.2,-,0.00,Snow,Light Snow,60,2012-12-09 22:54:00
5:07 PM,28.4,26.6,93,29.79,0.8,NE,8.1,-,0.01,Snow,Light Snow,50,2012-12-09 23:07:00
5:18 PM,28.4,26.6,93,29.80,0.8,NE,5.8,-,0.01,Snow,Light Snow,50,2012-12-09 23:18:00
5:54 PM,28.0,27.0,96,29.84,0.5,NE,8.1,-,0.05,Fog-Snow,Snow,50,2012-12-09 23:54:00
6:54 PM,28.9,27.0,92,29.83,0.8,NE,10.4,-,0.03,Snow,Light Snow,50,2012-12-10 00:54:00
7:54 PM,28.0,27.0,96,29.80,0.8,ENE,11.5,-,0.01,Snow,Light Snow,60,2012-12-10 01:54:00
8:12 PM,28.4,26.6,93,29.74,1.0,NE,10.4,-,0.00,Snow,Light Snow,50,2012-12-10 02:12:00
8:49 PM,28.4,26.6,93,29.73,0.8,NE,11.5,-,0.01,Snow,Light Snow,50,2012-12-10 02:49:00
8:54 PM,28.0,27.0,96,29.78,0.8,ENE,9.2,-,0.01,Snow,Light Snow,60,2012-12-10 02:54:00
9:25 PM,28.4,26.6,93,29.72,1.0,NE,9.2,-,0.00,Snow,Light Snow,50,2012-12-10 03:25:00
9:45 PM,28.4,26.6,93,29.73,1.2,NE,10.4,-,0.00,Snow,Light Snow,50,2012-12-10 03:45:00
9:54 PM,28.0,26.1,92,29.78,1.2,NE,10.4,-,0.00,Snow,Light Snow,40,2012-12-10 03:54:00
10:02 PM,28.4,26.6,93,29.72,1.2,NE,10.4,-,0.00,Snow,Light Snow,40,2012-12-10 04:02:00
10:54 PM,27.0,25.0,92,29.76,1.2,NE,10.4,-,0.00,Snow,Light Snow,40,2012-12-10 04:54:00
11:19 PM,26.6,24.8,93,29.72,2.0,NE,10.4,-,0.00,Snow,Light Snow,50,2012-12-10 05:19:00
11:27 PM,26.6,24.8,93,29.72,3.0,NE,9.2,-,0.00,Snow,Light Snow,40,2012-12-10 05:27:00
11:54 PM,27.0,25.0,92,29.77,8.0,NE,10.4,-,0.00,Snow,Light Snow,40,2012-12-10 05:54:00